This demonstration page uses our WeatherBlox Daily Observations layout. Learn more.

Left ArrowRight Arrow

Hourly Observations for October 3, 2016

Temp ( °F °C ) Dew Point ( °F °C ) Humidity (%) Winds ( mph kmh ) Pressure ( in mb ) Visibility ( mi km ) Precip ( " mm )
12:53 am 00:53 Mostly Cloudy 52 11.1 43 6.1 72 72 ENE 13 20 29.80 1009 10 16 0.00 0.00
1:53 am 01:53 Cloudy 52 11.1 45 7.2 77 77 ENE 13 20 29.79 1009 10 16 0.00 0.00
2:53 am 02:53 Cloudy 51 10.6 46 7.8 83 83 ENE 10 17 29.77 1008 10 16 0.00 0.00
3:53 am 03:53 Cloudy 51 10.6 47 8.3 86 86 ENE 10 17 29.76 1008 10 16 0.00 0.00
4:53 am 04:53 Cloudy 50 10 48 8.9 93 93 ENE 15 24 29.75 1008 10 16 0.00 0.00
5:19 am 05:19 Cloudy 50 10 47 8.3 89 89 ENE 14 22 29.77 1008 10 16 0.00 0.00
5:53 am 05:53 Cloudy 49 9.4 47 8.3 93 93 ENE 16 26 29.75 1007 10 16 0.00 0.00
6:53 am 06:53 Cloudy 49 9.4 46 7.8 90 90 NNE 10 17 29.75 1008 10 16 0.00 0.00
7:53 am 07:53 Cloudy with Light Rain 49 9.4 47 8.3 93 93 NE 13 20 29.75 1007 10 16 0.01 0.25
8:07 am 08:07 Cloudy 49 9.4 47 8.3 93 93 NE 10 17 29.74 1007 10 16 0.00 0.03
8:53 am 08:53 Cloudy 49 9.4 47 8.3 93 93 NE 13 20 29.75 1008 10 16 0.00 0.03
9:26 am 09:26 Cloudy with Light Rain 48 9 46 8 94 94 NE 14 22 29.77 1008 10 16 0.00 0.00
9:42 am 09:42 Cloudy with Light Rain 48 9 46 8 94 94 NNE 13 20 29.77 1008 10 16 0.00 0.00
9:53 am 09:53 Cloudy 48 8.9 46 7.8 93 93 NE 14 22 29.77 1008 10 16 0.00 0.03
10:53 am 10:53 Cloudy with Light Rain 48 8.9 46 7.8 93 93 NE 13 20 29.77 1008 10 16 0.01 0.25
11:53 am 11:53 Cloudy with Light Rain 48 8.9 46 7.8 93 93 NE 17 28 29.77 1008 8 13 0.03 0.76
12:53 pm 12:53 Cloudy with Light Rain 49 9.4 46 7.8 90 90 NNE 17 28 29.76 1008 10 16 0.02 0.51
1:53 pm 13:53 Cloudy with Light Rain 49 9.4 45 7.2 86 86 NNE 15 24 29.74 1007 10 16 0.03 0.76
2:53 pm 14:53 Cloudy with Light Rain 49 9.4 46 7.8 90 90 N 13 20 29.73 1007 10 16 0.01 0.25
3:53 pm 15:53 Cloudy with Light Rain 49 9.4 46 7.8 90 90 NE 13 20 29.74 1007 10 16 0.02 0.51
4:15 pm 16:15 Cloudy with Light Rain 49 9.4 47 8.3 93 93 NE 10 17 29.74 1007 10 16 0.01 0.25
4:27 pm 16:27 Cloudy with Light Rain 49 9.4 46 7.8 90 90 NNE 12 19 29.74 1007 10 16 0.01 0.25
4:53 pm 16:53 Cloudy with Light Rain 48 8.9 46 7.8 93 93 NNE 10 17 29.74 1007 10 16 0.03 0.76
5:26 pm 17:26 Cloudy with Light Rain 46 8 45 7 93 93 NE 15 24 29.74 1007 5 8 0.00 0.00
5:44 pm 17:44 Cloudy with Light Rain 46 8 45 7 93 93 NE 16 26 29.74 1007 7 11 0.00 0.00
5:53 pm 17:53 Cloudy with Light Rain 46 7.8 44 6.7 93 93 NE 13 20 29.77 1008 5 8 0.05 1.27
6:50 pm 18:50 Cloudy with Light Rain 46 8 43 6 87 87 NNE 14 22 29.74 1007 10 16 0.00 0.00
6:53 pm 18:53 Cloudy with Light Rain 45 7.2 43 6.1 93 93 NNE 13 20 29.77 1008 10 16 0.04 1.02
7:07 pm 19:07 Cloudy with Light Rain 45 7.2 43 6.1 93 93 NE 13 20 29.74 1007 10 16 0.00 0.03
7:31 pm 19:31 Cloudy with Light Rain 45 7.2 43 6.1 93 93 NNE 14 22 29.74 1007 6 10 0.02 0.51
7:50 pm 19:50 Cloudy with Light Rain 45 7 45 7 100 100 NNE 13 20 29.74 1007 7 11 0.00 0.00
7:53 pm 19:53 Cloudy with Light Rain 46 7.8 44 6.7 93 93 NNE 12 19 29.76 1008 7 11 0.05 1.27
8:53 pm 20:53 Cloudy with Light Rain 46 7.8 44 6.7 93 93 N 10 17 29.75 1008 6 10 0.04 1.02
9:53 pm 21:53 Cloudy with Light Rain 45 7.2 43 6.1 93 93 N 14 22 29.75 1008 10 16 0.04 1.02
10:53 pm 22:53 Cloudy with Light Rain 45 7.2 43 6.1 93 93 NNW 12 19 29.76 1008 10 16 0.02 0.51
11:00 pm 23:00 Cloudy with Light Rain 45 7 43 6 93 93 N 16 26 29.74 1007 8 13 0.00 0.00
11:09 pm 23:09 Cloudy with Light Rain 44 6.7 41 5 89 89 NNW 16 26 29.77 1008 8 13 0.01 0.25
11:40 pm 23:40 Cloudy with Light Rain 43 6 39 4 87 87 N 16 26 29.77 1008 9 14 0.00 0.00
11:53 pm 23:53 Cloudy with Light Rain 42 5.6 40 4.4 92 92 N 14 22 29.77 1008 9 14 0.06 1.52

Powered by AerisWeather